,,,PA_Meas_PMT16A,,PR_Meas_QMR101_102,,RH_Meas_QMH101,,SR_Meas_QMS101,,TA_Meas_QMH101,,GenWind,,GenWind,
date,time,status,PA,status,PR,status,RH,status,SR,status,TA,status,DirAvg,status,SpdAvg,
2009-09-06, 00:00:04,VALID,1004.42,VALID,0,VALID,95.834,VALID,0,VALID,23.6044,VALID,353,VALID,0.484766,
2009-09-06, 00:01:04,VALID,1004.41,VALID,0,VALID,95.8264,VALID,0,VALID,23.585,VALID,353,VALID,0.407031,
2009-09-06, 00:02:04,VALID,1004.43,VALID,0,VALID,95.8187,VALID,0,VALID,23.5655,VALID,353,VALID,0.298438,
2009-09-06, 00:03:04,VALID,1004.39,VALID,0,VALID,95.834,VALID,0,VALID,23.5868,VALID,353,VALID,0.414844,
2009-09-06, 00:04:04,VALID,1004.37,VALID,0,VALID,95.8111,VALID,0,VALID,23.585,VALID,353,VALID,0.0207031,
2009-09-06, 00:05:04,VALID,1004.37,VALID,0,VALID,95.7959,VALID,0,VALID,23.5655,VALID,353,VALID,0,
2009-09-06, 00:06:04,VALID,1004.36,VALID,0,VALID,95.8264,VALID,0,VALID,23.5673,VALID,353,VALID,0,
2009-09-06, 00:07:04,VALID,1004.37,VALID,0,VALID,95.8187,VALID,0,VALID,23.5266,VALID,353,VALID,0,
2009-09-06, 00:08:04,VALID,1004.36,VALID,0,VALID,95.8187,VALID,0,VALID,23.5284,VALID,353,VALID,0,
2009-09-06, 00:09:04,VALID,1004.36,VALID,0,VALID,95.8187,VALID,0,VALID,23.5284,VALID,353,VALID,0,
2009-09-06, 00:10:04,VALID,1004.32,VALID,0,VALID,95.8111,VALID,0,VALID,23.5284,VALID,353,VALID,0.0207031,
2009-09-06, 00:11:04,VALID,1004.34,VALID,0,VALID,95.8416,VALID,0,VALID,23.5266,VALID,353,VALID,0.126172,
2009-09-06, 00:12:04,VALID,1004.29,VALID,0,VALID,95.7959,VALID,0,VALID,23.5266,VALID,353,VALID,0.0960938,
2009-09-06, 00:13:04,VALID,1004.27,VALID,0,VALID,95.8035,VALID,0,VALID,23.5284,VALID,353,VALID,0.00820312,
2009-09-06, 00:14:04,VALID,1004.27,VALID,0,VALID,95.8035,VALID,0,VALID,23.5284,VALID,353,VALID,0.00585938,
2009-09-06, 00:15:04,VALID,1004.24,VALID,0,VALID,95.7959,VALID,0,VALID,23.5089,VALID,353,VALID,0.368359,
2009-09-06, 00:16:04,VALID,1004.23,VALID,0,VALID,95.8035,VALID,0,VALID,23.5089,VALID,353,VALID,0.1125,
2009-09-06, 00:17:04,VALID,1004.22,VALID,0,VALID,95.8187,VALID,0,VALID,23.5089,VALID,353,VALID,0,
2009-09-06, 00:18:04,VALID,1004.19,VALID,0,VALID,95.8035,VALID,0,VALID,23.4894,VALID,353,VALID,0.00429688,
2009-09-06, 00:19:04,VALID,1004.2,VALID,0,VALID,95.8187,VALID,0,VALID,23.4682,VALID,353,VALID,0,
2009-09-06, 00:20:04,VALID,1004.21,VALID,0,VALID,95.7959,VALID,0,VALID,23.4894,VALID,353,VALID,0.166016,
2009-09-06, 00:21:04,VALID,1004.18,VALID,0,VALID,95.8187,VALID,0,VALID,23.4682,VALID,353,VALID,0.0804688,
2009-09-06, 00:22:04,VALID,1004.16,VALID,0,VALID,95.7882,VALID,0,VALID,23.4682,VALID,353,VALID,0,
2009-09-06, 00:23:04,VALID,1004.18,VALID,0,VALID,95.8111,VALID,0,VALID,23.4682,VALID,353,VALID,0,
2009-09-06, 00:24:04,VALID,1004.17,VALID,0,VALID,95.8035,VALID,0,VALID,23.4894,VALID,353,VALID,0,
2009-09-06, 00:25:04,VALID,1004.12,VALID,0,VALID,95.8035,VALID,0,VALID,23.4682,VALID,353,VALID,0,
2009-09-06, 00:26:04,VALID,1004.1,VALID,0,VALID,95.8187,VALID,0,VALID,23.4682,VALID,353,VALID,0,
2009-09-06, 00:27:04,VALID,1004.08,VALID,0,VALID,95.8111,VALID,0,VALID,23.4293,VALID,353,VALID,0.197266,
2009-09-06, 00:28:04,VALID,1004.08,VALID,0,VALID,95.8111,VALID,0,VALID,23.3904,VALID,353,VALID,0.0597656,
2009-09-06, 00:29:04,VALID,1004.05,VALID,0,VALID,95.7959,VALID,0,VALID,23.4116,VALID,353,VALID,0.00273437,
2009-09-06, 00:30:04,VALID,1004.05,VALID,0,VALID,95.8035,VALID,0,VALID,23.3921,VALID,353,VALID,0.0671875,
2009-09-06, 00:31:04,VALID,1004.06,VALID,0,VALID,95.8035,VALID,0,VALID,23.3904,VALID,353,VALID,0,
2009-09-06, 00:32:04,VALID,1004.05,VALID,0,VALID,95.7959,VALID,0,VALID,23.3921,VALID,353,VALID,0.015625,
2009-09-06, 00:33:04,VALID,1004.06,VALID,0,VALID,95.8035,VALID,0.100563,VALID,23.3709,VALID,353,VALID,0.130859,
2009-09-06, 00:34:04,VALID,1004.09,VALID,0,VALID,95.8111,VALID,0,VALID,23.3514,VALID,353,VALID,0.0429688,
2009-09-06, 00:35:04,VALID,1004.07,VALID,0,VALID,95.8111,VALID,0,VALID,23.3921,VALID,353,VALID,0,
2009-09-06, 00:36:04,VALID,1004.06,VALID,0,VALID,95.8035,VALID,0,VALID,23.4116,VALID,353,VALID,0.210156,
2009-09-06, 00:37:04,VALID,1004.06,VALID,0,VALID,95.8111,VALID,0,VALID,23.4116,VALID,353,VALID,0.219531,
2009-09-06, 00:38:04,VALID,1004.03,VALID,0,VALID,95.8035,VALID,0,VALID,23.4487,VALID,353,VALID,0.242188,
2009-09-06, 00:39:04,VALID,1004.02,VALID,0,VALID,95.8187,VALID,0,VALID,23.4682,VALID,353,VALID,0,
2009-09-06, 00:40:04,VALID,1003.99,VALID,0,VALID,95.8035,VALID,0,VALID,23.4877,VALID,353,VALID,0,
2009-09-06, 00:41:04,VALID,1003.97,VALID,0,VALID,95.8187,VALID,0,VALID,23.5071,VALID,353,VALID,0,
2009-09-06, 00:42:04,VALID,1003.96,VALID,0,VALID,95.8187,VALID,0,VALID,23.5284,VALID,353,VALID,0.267578,
2009-09-06, 00:43:04,VALID,1003.95,VALID,0,VALID,95.8187,VALID,0,VALID,23.5089,VALID,353,VALID,0.342578,
2009-09-06, 00:44:04,VALID,1003.96,VALID,0,VALID,95.834,VALID,0,VALID,23.5284,VALID,353,VALID,0.228516,
2009-09-06, 00:45:04,VALID,1003.94,VALID,0,VALID,95.8111,VALID,0,VALID,23.5478,VALID,353,VALID,0.238281,
2009-09-06, 00:46:04,VALID,1003.94,VALID,0,VALID,95.8111,VALID,0,VALID,23.5266,VALID,353,VALID,0.150781,
2009-09-06, 00:47:04,VALID,1003.94,VALID,0,VALID,95.834,VALID,0,VALID,23.585,VALID,353,VALID,0,
2009-09-06, 00:48:04,VALID,1003.92,VALID,0,VALID,95.8111,VALID,0,VALID,23.6062,VALID,353,VALID,0.00429688,
2009-09-06, 00:49:04,VALID,1003.92,VALID,0,VALID,95.8111,VALID,0,VALID,23.6239,VALID,353,VALID,0.155469,
2009-09-06, 00:50:04,VALID,1003.93,VALID,0,VALID,95.8111,VALID,0,VALID,23.5655,VALID,353,VALID,0.251563,
2009-09-06, 00:51:04,VALID,1003.88,VALID,0,VALID,95.8111,VALID,0,VALID,23.5478,VALID,353,VALID,0.00195313,
2009-09-06, 00:52:04,VALID,1003.9,VALID,0,VALID,95.8035,VALID,0,VALID,23.5478,VALID,353,VALID,0.111328,
2009-09-06, 00:53:04,VALID,1003.87,VALID,0,VALID,95.8035,VALID,0,VALID,23.5071,VALID,353,VALID,0.251172,
2009-09-06, 00:54:04,VALID,1003.89,VALID,0,VALID,95.8187,VALID,0,VALID,23.4877,VALID,353,VALID,0.0757812,
2009-09-06, 00:55:04,VALID,1003.89,VALID,0,VALID,95.7959,VALID,0,VALID,23.5071,VALID,353,VALID,0.248047,
2009-09-06, 00:56:04,VALID,1003.91,VALID,0,VALID,95.8035,VALID,0,VALID,23.5284,VALID,353,VALID,0.379297,
2009-09-06, 00:57:04,VALID,1003.91,VALID,0,VALID,95.8111,VALID,0,VALID,23.4894,VALID,353,VALID,0.0570313,
2009-09-06, 00:58:04,VALID,1003.89,VALID,0,VALID,95.7959,VALID,0,VALID,23.5089,VALID,353,VALID,0.290234,
2009-09-06, 00:59:04,VALID,1003.9,VALID,0,VALID,95.8035,VALID,0,VALID,23.4894,VALID,353,VALID,0.601563,
2009-09-06, 01:00:04,VALID,1003.88,VALID,0,VALID,95.8035,VALID,0,VALID,23.4894,VALID,353,VALID,0.418359,
2009-09-06, 01:01:04,VALID,1003.89,VALID,0,VALID,95.8035,VALID,0,VALID,23.4894,VALID,353,VALID,0.392188,
2009-09-06, 01:02:04,VALID,1003.9,VALID,0,VALID,95.8035,VALID,0,VALID,23.5284,VALID,353,VALID,0.319531,
2009-09-06, 01:03:04,VALID,1003.88,VALID,0,VALID,95.8035,VALID,0,VALID,23.5284,VALID,353,VALID,0.472266,
2009-09-06, 01:04:04,VALID,1003.88,VALID,0,VALID,95.8111,VALID,0,VALID,23.5089,VALID,353,VALID,0.437891,
2009-09-06, 01:05:04,VALID,1003.86,VALID,0,VALID,95.7882,VALID,0,VALID,23.5089,VALID,353,VALID,0.509766,
2009-09-06, 01:06:04,VALID,1003.84,VALID,0,VALID,95.7882,VALID,0,VALID,23.5284,VALID,353,VALID,0.242188,
2009-09-06, 01:07:04,VALID,1003.82,VALID,0,VALID,95.8111,VALID,0,VALID,23.546,VALID,353,VALID,0.546484,
2009-09-06, 01:08:04,VALID,1003.81,VALID,0,VALID,95.8035,VALID,0,VALID,23.5673,VALID,354,VALID,0.479297,
2009-09-06, 01:09:04,VALID,1003.81,VALID,0,VALID,95.7959,VALID,0,VALID,23.5655,VALID,353,VALID,0.522266,
2009-09-06, 01:10:04,VALID,1003.77,VALID,0,VALID,95.8035,VALID,0,VALID,23.5868,VALID,353,VALID,0.172656,
2009-09-06, 01:11:04,VALID,1003.77,VALID,0,VALID,95.8035,VALID,0,VALID,23.5655,VALID,353,VALID,0,
2009-09-06, 01:12:04,VALID,1003.73,VALID,0,VALID,95.8035,VALID,0,VALID,23.6062,VALID,353,VALID,0.35,
2009-09-06, 01:13:04,VALID,1003.71,VALID,0,VALID,95.8035,VALID,0,VALID,23.6044,VALID,353,VALID,0.4,
2009-09-06, 01:14:04,VALID,1003.66,VALID,0,VALID,95.7959,VALID,0,VALID,23.6239,VALID,353,VALID,0.501562,
2009-09-06, 01:15:04,VALID,1003.68,VALID,0,VALID,95.7882,VALID,0,VALID,23.6841,VALID,353,VALID,0.44375,
2009-09-06, 01:16:04,VALID,1003.67,VALID,0,VALID,95.7806,VALID,0,VALID,23.661,VALID,353,VALID,0.448828,
2009-09-06, 01:17:04,VALID,1003.62,VALID,0,VALID,95.7959,VALID,0,VALID,23.7017,VALID,353,VALID,0.401172,
2009-09-06, 01:18:04,VALID,1003.61,VALID,0,VALID,95.7882,VALID,0,VALID,23.7017,VALID,353,VALID,0.422656,
2009-09-06, 01:19:04,VALID,1003.61,VALID,0,VALID,95.7959,VALID,0,VALID,23.723,VALID,353,VALID,0.392578,
2009-09-06, 01:20:04,VALID,1003.62,VALID,0,VALID,95.8187,VALID,0,VALID,23.7035,VALID,353,VALID,0.392578,
2009-09-06, 01:21:04,VALID,1003.61,VALID,0,VALID,95.8111,VALID,0,VALID,23.7017,VALID,353,VALID,0.407422,
2009-09-06, 01:22:04,VALID,1003.59,VALID,0,VALID,95.7882,VALID,0,VALID,23.7407,VALID,353,VALID,0.286328,
2009-09-06, 01:23:04,VALID,1003.59,VALID,0,VALID,95.7806,VALID,0,VALID,23.7601,VALID,353,VALID,0.149219,
2009-09-06, 01:24:04,VALID,1003.59,VALID,0,VALID,95.7806,VALID,0,VALID,23.8009,VALID,353,VALID,0.341016,
2009-09-06, 01:25:04,VALID,1003.58,VALID,0,VALID,95.7806,VALID,0,VALID,23.8203,VALID,353,VALID,0.390234,
2009-09-06, 01:26:04,VALID,1003.56,VALID,0,VALID,95.773,VALID,0,VALID,23.838,VALID,354,VALID,0.513281,
2009-09-06, 01:27:04,VALID,1003.58,VALID,0,VALID,95.7653,VALID,0,VALID,23.8787,VALID,354,VALID,0.391797,
2009-09-06, 01:28:04,VALID,1003.57,VALID,0,VALID,95.7501,VALID,0,VALID,23.9159,VALID,354,VALID,0.488672,
2009-09-06, 01:29:04,VALID,1003.6,VALID,0,VALID,95.7653,VALID,0,VALID,23.9371,VALID,353,VALID,0.283203,
2009-09-06, 01:30:04,VALID,1003.6,VALID,0,VALID,95.7501,VALID,0,VALID,23.9566,VALID,353,VALID,0.0164062,
2009-09-06, 01:31:04,VALID,1003.58,VALID,0,VALID,95.7348,VALID,0,VALID,23.9761,VALID,353,VALID,0.230078,
2009-09-06, 01:32:04,VALID,1003.59,VALID,0,VALID,95.7348,VALID,0,VALID,23.9761,VALID,353,VALID,0.314453,
2009-09-06, 01:33:04,VALID,1003.57,VALID,0,VALID,95.7272,VALID,0,VALID,23.9742,VALID,353,VALID,0.0183594,
2009-09-06, 01:34:04,VALID,1003.57,VALID,0,VALID,95.7043,VALID,0,VALID,23.9937,VALID,353,VALID,0,
2009-09-06, 01:35:04,VALID,1003.59,VALID,0,VALID,95.7196,VALID,0,VALID,23.9761,VALID,353,VALID,0,
2009-09-06, 01:36:04,VALID,1003.59,VALID,0,VALID,95.689,VALID,0,VALID,23.9159,VALID,353,VALID,0,
2009-09-06, 01:37:04,VALID,1003.58,VALID,0,VALID,95.689,VALID,0,VALID,23.9371,VALID,353,VALID,0,
2009-09-06, 01:38:04,VALID,1003.6,VALID,0,VALID,95.6738,VALID,0,VALID,23.9177,VALID,353,VALID,0,
2009-09-06, 01:39:04,VALID,1003.55,VALID,0,VALID,95.6738,VALID,0,VALID,23.8982,VALID,353,VALID,0,
2009-09-06, 01:40:04,VALID,1003.55,VALID,0,VALID,95.6509,VALID,0,VALID,23.8964,VALID,353,VALID,0.234766,
2009-09-06, 01:41:04,VALID,1003.54,VALID,0,VALID,95.6433,VALID,0,VALID,23.8575,VALID,353,VALID,0.435937,
2009-09-06, 01:42:04,VALID,1003.52,VALID,0,VALID,95.6433,VALID,0,VALID,23.7991,VALID,353,VALID,0.337891,
2009-09-06, 01:43:04,VALID,1003.55,VALID,0,VALID,95.5975,VALID,0,VALID,23.8203,VALID,353,VALID,0.471484,
2009-09-06, 01:44:04,VALID,1003.53,VALID,0,VALID,95.6051,VALID,0,VALID,23.8203,VALID,353,VALID,0.409766,
2009-09-06, 01:45:04,VALID,1003.52,VALID,0,VALID,95.5822,VALID,0,VALID,23.8009,VALID,353,VALID,0.369922,
2009-09-06, 01:46:04,VALID,1003.53,VALID,0,VALID,95.5822,VALID,0,VALID,23.8009,VALID,353,VALID,0.526172,
2009-09-06, 01:47:04,VALID,1003.53,VALID,0,VALID,95.5975,VALID,0,VALID,23.7814,VALID,353,VALID,0.473047,
2009-09-06, 01:48:04,VALID,1003.5,VALID,0,VALID,95.567,VALID,0,VALID,23.8009,VALID,353,VALID,0.500391,
2009-09-06, 01:49:04,VALID,1003.51,VALID,0,VALID,95.5288,VALID,0,VALID,23.8398,VALID,353,VALID,0,
2009-09-06, 01:50:04,VALID,1003.51,VALID,0,VALID,95.5441,VALID,0,VALID,23.8398,VALID,353,VALID,0,
2009-09-06, 01:51:04,VALID,1003.52,VALID,0,VALID,95.5746,VALID,0,VALID,23.8398,VALID,353,VALID,0.610156,
2009-09-06, 01:52:04,VALID,1003.54,VALID,0,VALID,95.5517,VALID,0,VALID,23.8009,VALID,353,VALID,0.410937,
2009-09-06, 01:53:04,VALID,1003.52,VALID,0,VALID,95.5365,VALID,0,VALID,23.7601,VALID,353,VALID,0.578906,
2009-09-06, 01:54:04,VALID,1003.51,VALID,0,VALID,95.5441,VALID,0,VALID,23.7796,VALID,353,VALID,0.519922,
2009-09-06, 01:55:04,VALID,1003.51,VALID,0,VALID,95.5288,VALID,0,VALID,23.7814,VALID,353,VALID,0.483984,
2009-09-06, 01:56:04,VALID,1003.53,VALID,0,VALID,95.5365,VALID,0,VALID,23.7796,VALID,353,VALID,0.471484,
2009-09-06, 01:57:04,VALID,1003.53,VALID,0,VALID,95.5365,VALID,0,VALID,23.7796,VALID,353,VALID,0.485938,
2009-09-06, 01:58:04,VALID,1003.51,VALID,0,VALID,95.5212,VALID,0,VALID,23.8009,VALID,353,VALID,0.333984,
2009-09-06, 01:59:04,VALID,1003.5,VALID,0,VALID,95.5212,VALID,0,VALID,23.7796,VALID,353,VALID,0.608984,
2009-09-06, 02:00:04,VALID,1003.48,VALID,0,VALID,95.5212,VALID,0,VALID,23.7407,VALID,353,VALID,0.367188,
2009-09-06, 02:01:04,VALID,1003.46,VALID,0,VALID,95.5212,VALID,0,VALID,23.8203,VALID,353,VALID,0.402734,
2009-09-06, 02:02:04,VALID,1003.47,VALID,0,VALID,95.5288,VALID,0,VALID,23.8398,VALID,353,VALID,0.391016,
2009-09-06, 02:03:04,VALID,1003.42,VALID,0,VALID,95.5212,VALID,0,VALID,23.8398,VALID,353,VALID,0.516016,
2009-09-06, 02:04:04,VALID,1003.39,VALID,0,VALID,95.5441,VALID,0,VALID,23.8185,VALID,353,VALID,0.364062,
2009-09-06, 02:05:04,VALID,1003.42,VALID,0,VALID,95.506,VALID,0,VALID,23.8787,VALID,353,VALID,0.201562,
2009-09-06, 02:06:04,VALID,1003.37,VALID,0,VALID,95.5288,VALID,0,VALID,23.838,VALID,353,VALID,0.397266,
2009-09-06, 02:07:04,VALID,1003.37,VALID,0,VALID,95.5365,VALID,0,VALID,23.8593,VALID,353,VALID,0.50625,
2009-09-06, 02:08:04,VALID,1003.36,VALID,0,VALID,95.5136,VALID,0,VALID,23.9371,VALID,353,VALID,0.633203,
2009-09-06, 02:09:04,VALID,1003.37,VALID,0,VALID,95.5212,VALID,0,VALID,23.9371,VALID,353,VALID,0.567969,
2009-09-06, 02:10:04,VALID,1003.36,VALID,0,VALID,95.5212,VALID,0,VALID,23.9761,VALID,353,VALID,0.303125,
2009-09-06, 02:11:04,VALID,1003.36,VALID,0,VALID,95.5365,VALID,0,VALID,23.9761,VALID,353,VALID,0.439063,
2009-09-06, 02:12:04,VALID,1003.38,VALID,0,VALID,95.5288,VALID,0,VALID,23.9548,VALID,353,VALID,0.410156,
2009-09-06, 02:13:04,VALID,1003.36,VALID,0,VALID,95.5136,VALID,0,VALID,23.9937,VALID,354,VALID,0.491406,
2009-09-06, 02:14:04,VALID,1003.34,VALID,0,VALID,95.5136,VALID,0,VALID,24.0345,VALID,350,VALID,0.617578,
2009-09-06, 02:15:04,VALID,1003.33,VALID,0,VALID,95.5212,VALID,0,VALID,24.015,VALID,350,VALID,0.250781,
2009-09-06, 02:16:04,VALID,1003.34,VALID,0,VALID,95.506,VALID,0,VALID,23.9937,VALID,349,VALID,0.377344,
2009-09-06, 02:17:04,VALID,1003.31,VALID,0,VALID,95.506,VALID,0,VALID,24.0345,VALID,352,VALID,0.428906,
2009-09-06, 02:18:04,VALID,1003.28,VALID,0,VALID,95.4983,VALID,0,VALID,23.9955,VALID,352,VALID,0.467578,
2009-09-06, 02:19:04,VALID,1003.26,VALID,0,VALID,95.4754,VALID,0,VALID,23.9955,VALID,360,VALID,0.489844,
2009-09-06, 02:20:04,VALID,1003.27,VALID,0,VALID,95.4831,VALID,0,VALID,24.0345,VALID,356,VALID,0.737109,
2009-09-06, 02:21:04,VALID,1003.26,VALID,0,VALID,95.4526,VALID,0,VALID,24.091,VALID,352,VALID,0.644922,
2009-09-06, 02:22:04,VALID,1003.25,VALID,0,VALID,95.4831,VALID,0,VALID,24.192,VALID,344,VALID,0.707031,
2009-09-06, 02:23:04,VALID,1003.26,VALID,0,VALID,95.4831,VALID,0,VALID,24.1884,VALID,348,VALID,0.122656,
2009-09-06, 02:24:04,VALID,1003.27,VALID,0,VALID,95.4602,VALID,0,VALID,24.1902,VALID,352,VALID,0.413281,
2009-09-06, 02:25:04,VALID,1003.3,VALID,0,VALID,95.4602,VALID,0,VALID,24.2097,VALID,348,VALID,0.564062,
2009-09-06, 02:26:04,VALID,1003.26,VALID,0,VALID,95.4449,VALID,0,VALID,24.2486,VALID,310,VALID,0.347656,
2009-09-06, 02:27:04,VALID,1003.29,VALID,0,VALID,95.4297,VALID,0,VALID,24.2486,VALID,342,VALID,0.445313,
2009-09-06, 02:28:04,VALID,1003.26,VALID,0,VALID,95.4144,VALID,0,VALID,24.2291,VALID,344,VALID,0.546875,
2009-09-06, 02:29:04,VALID,1003.25,VALID,0,VALID,95.3915,VALID,0,VALID,24.2097,VALID,344,VALID,0.511719,
2009-09-06, 02:30:04,VALID,1003.26,VALID,0,VALID,95.3534,VALID,0,VALID,24.2291,VALID,344,VALID,0.346094,
2009-09-06, 02:31:04,VALID,1003.24,VALID,0,VALID,95.3534,VALID,0,VALID,24.1902,VALID,348,VALID,0.533203,
2009-09-06, 02:32:04,VALID,1003.23,VALID,0,VALID,95.3,VALID,0,VALID,24.2115,VALID,348,VALID,0.471094,
2009-09-06, 02:33:04,VALID,1003.18,VALID,0,VALID,95.2847,VALID,0,VALID,24.1689,VALID,348,VALID,0.0785156,
2009-09-06, 02:34:04,VALID,1003.19,VALID,0,VALID,95.2618,VALID,0,VALID,24.1707,VALID,348,VALID,0,
2009-09-06, 02:35:04,VALID,1003.16,VALID,0,VALID,95.2389,VALID,0,VALID,24.2291,VALID,348,VALID,0.269531,
2009-09-06, 02:36:04,VALID,1003.19,VALID,0,VALID,95.2618,VALID,0,VALID,24.2681,VALID,350,VALID,0.7375,
2009-09-06, 02:37:04,VALID,1003.15,VALID,0,VALID,95.2542,VALID,0,VALID,24.307,VALID,352,VALID,0.469922,
2009-09-06, 02:38:04,VALID,1003.17,VALID,0,VALID,95.2542,VALID,0,VALID,24.3459,VALID,330,VALID,0.405469,
2009-09-06, 02:39:04,VALID,1003.18,VALID,0,VALID,95.2313,VALID,0,VALID,24.3459,VALID,351,VALID,0.602344,
2009-09-06, 02:40:04,VALID,1003.16,VALID,0,VALID,95.2008,VALID,0,VALID,24.307,VALID,346,VALID,0.457422,
2009-09-06, 02:41:04,VALID,1003.16,VALID,0,VALID,95.1245,VALID,0,VALID,24.2857,VALID,352,VALID,0.666797,
2009-09-06, 02:42:04,VALID,1003.15,VALID,0,VALID,95.1093,VALID,0,VALID,24.2875,VALID,340,VALID,0.672656,
2009-09-06, 02:43:04,VALID,1003.13,VALID,0,VALID,95.0635,VALID,0,VALID,24.2078,VALID,348,VALID,0.640625,
2009-09-06, 02:44:04,VALID,1003.15,VALID,0,VALID,94.9796,VALID,0,VALID,24.2078,VALID,349,VALID,0.602734,
2009-09-06, 02:45:04,VALID,1003.14,VALID,0,VALID,94.9796,VALID,0,VALID,24.2291,VALID,340,VALID,0.372656,
2009-09-06, 02:46:04,VALID,1003.17,VALID,0,VALID,94.9719,VALID,0,VALID,24.2291,VALID,311,VALID,0.296094,
2009-09-06, 02:47:04,VALID,1003.16,VALID,0,VALID,94.9567,VALID,0,VALID,24.2078,VALID,310,VALID,0.0234375,
2009-09-06, 02:48:04,VALID,1003.16,VALID,0,VALID,94.9338,VALID,0,VALID,24.2078,VALID,349,VALID,0.660547,
2009-09-06, 02:49:04,VALID,1003.18,VALID,0,VALID,94.9414,VALID,0,VALID,24.2291,VALID,344,VALID,0.445313,
2009-09-06, 02:50:04,VALID,1003.18,VALID,0,VALID,94.9109,VALID,0,VALID,24.2486,VALID,358,VALID,0.608203,
2009-09-06, 02:51:04,VALID,1003.21,VALID,0,VALID,94.888,VALID,0,VALID,24.2097,VALID,344,VALID,0.526172,
2009-09-06, 02:52:04,VALID,1003.22,VALID,0,VALID,94.8804,VALID,0,VALID,24.2097,VALID,352,VALID,0.403125,
2009-09-06, 02:53:04,VALID,1003.23,VALID,0,VALID,94.8728,VALID,0,VALID,24.2291,VALID,352,VALID,0.633594,
2009-09-06, 02:54:04,VALID,1003.18,VALID,0,VALID,94.9033,VALID,0,VALID,24.2875,VALID,339,VALID,0.292188,
2009-09-06, 02:55:04,VALID,1003.2,VALID,0,VALID,94.9033,VALID,0,VALID,24.307,VALID,340,VALID,0.0488281,
2009-09-06, 02:56:04,VALID,1003.17,VALID,0,VALID,94.8728,VALID,0,VALID,24.3052,VALID,340,VALID,0.210547,
2009-09-06, 02:57:04,VALID,1003.15,VALID,0,VALID,94.8728,VALID,0,VALID,24.3459,VALID,348,VALID,0.250781,
2009-09-06, 02:58:04,VALID,1003.13,VALID,0,VALID,94.8651,VALID,0,VALID,24.3459,VALID,349,VALID,0.409375,
2009-09-06, 02:59:04,VALID,1003.14,VALID,0,VALID,94.8499,VALID,0,VALID,24.3849,VALID,360,VALID,0.800391,
2009-09-06, 03:00:04,VALID,1003.18,VALID,0,VALID,94.7812,VALID,0,VALID,24.3459,VALID,1,VALID,0.800781,
2009-09-06, 03:01:04,VALID,1003.17,VALID,0,VALID,94.7507,VALID,0,VALID,24.4043,VALID,350,VALID,0.358203,
2009-09-06, 03:02:04,VALID,1003.2,VALID,0,VALID,94.6897,VALID,0,VALID,24.4043,VALID,350,VALID,0.384766,
2009-09-06, 03:03:04,VALID,1003.2,VALID,0,VALID,94.6439,VALID,0,VALID,24.4043,VALID,350,VALID,0,
2009-09-06, 03:04:04,VALID,1003.18,VALID,0,VALID,94.56,VALID,0,VALID,24.4043,VALID,350,VALID,0,
2009-09-06, 03:05:04,VALID,1003.18,VALID,0,VALID,94.5218,VALID,0,VALID,24.4043,VALID,350,VALID,0,
2009-09-06, 03:06:04,VALID,1003.19,VALID,0,VALID,94.4989,VALID,0,VALID,24.4043,VALID,350,VALID,0,
2009-09-06, 03:07:04,VALID,1003.13,VALID,0,VALID,94.4761,VALID,0,VALID,24.4025,VALID,350,VALID,0,
2009-09-06, 03:08:04,VALID,1003.16,VALID,0,VALID,94.4608,VALID,0,VALID,24.4433,VALID,356,VALID,0.560938,
2009-09-06, 03:09:04,VALID,1003.17,VALID,0,VALID,94.415,VALID,0,VALID,24.4433,VALID,356,VALID,0.553125,
2009-09-06, 03:10:04,VALID,1003.15,VALID,0,VALID,94.3235,VALID,0,VALID,24.4257,VALID,353,VALID,0.00585938,
2009-09-06, 03:11:04,VALID,1003.15,VALID,0,VALID,94.1785,VALID,0,VALID,24.3265,VALID,353,VALID,0,
2009-09-06, 03:12:04,VALID,1003.11,VALID,0,VALID,94.0412,VALID,0,VALID,24.2486,VALID,353,VALID,0,
2009-09-06, 03:13:04,VALID,1003.11,VALID,0,VALID,94.0183,VALID,0,VALID,24.2291,VALID,353,VALID,0,
2009-09-06, 03:14:04,VALID,1003.16,VALID,0,VALID,94.0565,VALID,0,VALID,24.2097,VALID,353,VALID,0,
2009-09-06, 03:15:04,VALID,1003.13,VALID,0,VALID,94.1022,VALID,0,VALID,24.1689,VALID,353,VALID,0,
2009-09-06, 03:16:04,VALID,1003.14,VALID,0,VALID,94.1938,VALID,0,VALID,24.1707,VALID,353,VALID,0,
2009-09-06, 03:17:04,VALID,1003.17,VALID,0,VALID,94.2548,VALID,0,VALID,24.1707,VALID,353,VALID,0,
2009-09-06, 03:18:04,VALID,1003.17,VALID,0,VALID,94.3311,VALID,0,VALID,24.1707,VALID,353,VALID,0,
2009-09-06, 03:19:04,VALID,1003.18,VALID,0,VALID,94.3464,VALID,0,VALID,24.1513,VALID,353,VALID,0,
2009-09-06, 03:20:04,VALID,1003.19,VALID,0,VALID,94.3921,VALID,0,VALID,24.1318,VALID,353,VALID,0,
2009-09-06, 03:21:04,VALID,1003.18,VALID,0,VALID,94.3998,VALID,0,VALID,24.1142,VALID,353,VALID,0,
2009-09-06, 03:22:04,VALID,1003.18,VALID,0,VALID,94.415,VALID,0,VALID,24.0929,VALID,353,VALID,0,
2009-09-06, 03:23:04,VALID,1003.17,VALID,0,VALID,94.4837,VALID,0,VALID,24.0929,VALID,353,VALID,0,
2009-09-06, 03:24:04,VALID,1003.18,VALID,0,VALID,94.5371,VALID,0,VALID,24.0716,VALID,353,VALID,0,
2009-09-06, 03:25:04,VALID,1003.2,VALID,0,VALID,94.5371,VALID,0,VALID,24.0734,VALID,353,VALID,0,
2009-09-06, 03:26:04,VALID,1003.14,VALID,0,VALID,94.5829,VALID,0,VALID,24.0734,VALID,353,VALID,0,
2009-09-06, 03:27:04,VALID,1003.17,VALID,0,VALID,94.5752,VALID,0,VALID,23.9955,VALID,353,VALID,0,
2009-09-06, 03:28:04,VALID,1003.17,VALID,0,VALID,94.5676,VALID,0,VALID,23.9955,VALID,353,VALID,0,
2009-09-06, 03:29:04,VALID,1003.16,VALID,0,VALID,94.5905,VALID,0,VALID,23.9742,VALID,353,VALID,0,
2009-09-06, 03:30:04,VALID,1003.2,VALID,0,VALID,94.682,VALID,0,VALID,23.9742,VALID,353,VALID,0,
2009-09-06, 03:31:04,VALID,1003.22,VALID,0,VALID,94.7583,VALID,0,VALID,24.0326,VALID,353,VALID,0,
2009-09-06, 03:32:04,VALID,1003.25,VALID,0,VALID,94.8041,VALID,0,VALID,24.0734,VALID,353,VALID,0,
2009-09-06, 03:33:04,VALID,1003.26,VALID,0,VALID,94.8728,VALID,0,VALID,24.1105,VALID,193,VALID,0.925391,
2009-09-06, 03:34:04,VALID,1003.25,VALID,0,VALID,94.9338,VALID,0,VALID,24.1902,VALID,192,VALID,0.577734,
2009-09-06, 03:35:04,VALID,1003.28,VALID,0,VALID,95.0101,VALID,0,VALID,24.2894,VALID,190,VALID,0.793359,
2009-09-06, 03:36:04,VALID,1003.31,VALID,0,VALID,95.0406,VALID,0,VALID,24.3265,VALID,206,VALID,0.847656,
2009-09-06, 03:37:04,VALID,1003.27,VALID,0,VALID,95.0558,VALID,0,VALID,24.3654,VALID,206,VALID,0.221094,
2009-09-06, 03:38:04,VALID,1003.25,VALID,0,VALID,95.0635,VALID,0,VALID,24.3636,VALID,213,VALID,0.389453,
2009-09-06, 03:39:04,VALID,1003.24,VALID,0,VALID,95.0406,VALID,0,VALID,24.4043,VALID,213,VALID,0.219531,
2009-09-06, 03:40:04,VALID,1003.22,VALID,0,VALID,95.0406,VALID,0,VALID,24.4238,VALID,213,VALID,0.260156,
2009-09-06, 03:41:04,VALID,1003.22,VALID,0,VALID,95.0177,VALID,0,VALID,24.4628,VALID,213,VALID,0,
2009-09-06, 03:42:04,VALID,1003.17,VALID,0,VALID,95.0024,VALID,0,VALID,24.4628,VALID,213,VALID,0,
2009-09-06, 03:43:04,VALID,1003.19,VALID,0,VALID,94.9643,VALID,0,VALID,24.4804,VALID,213,VALID,0.157813,
2009-09-06, 03:44:04,VALID,1003.18,VALID,0,VALID,94.9338,VALID,0,VALID,24.4804,VALID,310,VALID,0.437109,
2009-09-06, 03:45:04,VALID,1003.18,VALID,0,VALID,94.9033,VALID,0,VALID,24.4785,VALID,339,VALID,0.00585938,
2009-09-06, 03:46:04,VALID,1003.17,VALID,0,VALID,94.8804,VALID,0,VALID,24.4804,VALID,340,VALID,0.569922,
2009-09-06, 03:47:04,VALID,1003.18,VALID,0,VALID,94.7965,VALID,0,VALID,24.4609,VALID,344,VALID,0.219141,